User: anonymous   Login
Location: Unspecified
(0.0000°N, 0.0000°E)
Time: 10:05:30
(UTC+02:00)
Language:

Cosmos 1300 - Orbit

View from above orbital plane
View from above orbital plane
View from above satellite
View from above satellite

Ground track
Ground track

The orbit data is extracted from the following two-line orbital elements,

1 12785U 81082A   17234.44674831  .00000847  00000-0  41548-4 0  9991
2 12785  82.5054   7.7759 0002201  60.5626   0.1941 15.16783265961896
Epoch (UTC): 22 August 2017 10:43:19
Eccentricity: 0.0002201
inclination: 82.5054°
perigee height: 514 km
apogee height: 517 km
right ascension of ascending node: 7.7759°
argument of perigee: 60.5626°
revolutions per day: 15.16783265
mean anomaly at epoch: 0.1941°
orbit number at epoch: 96189

The dashed part of the orbit path shows where the satellite is in the earth's shadow,  

DLR